TimeEDT,TemperatureF,Dew PointF,Humidity,Sea Level PressureIn,VisibilityMPH,Wind Direction,Wind SpeedMPH,Gust SpeedMPH,PrecipitationIn,Events,Conditions,WindDirDegrees,DateUTC
12:52 AM,45.0,39.0,80,30.26,10.0,SSE,5.8,-,N/A,,Scattered Clouds,160,2013-03-11 04:52:00
1:52 AM,45.0,39.9,82,30.25,10.0,SSE,5.8,-,N/A,,Mostly Cloudy,160,2013-03-11 05:52:00
2:52 AM,45.0,39.9,82,30.24,10.0,South,6.9,-,N/A,,Scattered Clouds,180,2013-03-11 06:52:00
3:08 AM,44.6,41.0,87,30.23,10.0,SSE,6.9,-,N/A,,Mostly Cloudy,160,2013-03-11 07:08:00
3:52 AM,45.0,41.0,86,30.22,10.0,South,10.4,-,N/A,,Overcast,180,2013-03-11 07:52:00
4:52 AM,45.0,41.0,86,30.21,10.0,South,8.1,-,N/A,,Overcast,180,2013-03-11 08:52:00
5:31 AM,44.6,39.2,81,30.21,10.0,SSE,6.9,-,N/A,,Overcast,160,2013-03-11 09:31:00
5:52 AM,44.6,41.0,87,30.20,10.0,South,8.1,-,N/A,,Overcast,170,2013-03-11 09:52:00
6:52 AM,45.0,41.0,86,30.21,10.0,South,6.9,-,N/A,,Overcast,190,2013-03-11 10:52:00
7:05 AM,44.6,41.0,87,30.21,10.0,South,8.1,-,N/A,,Overcast,180,2013-03-11 11:05:00
7:22 AM,44.6,42.8,93,30.21,10.0,South,8.1,-,N/A,,Overcast,180,2013-03-11 11:22:00
7:52 AM,45.0,42.1,90,30.19,7.0,South,9.2,-,N/A,,Overcast,180,2013-03-11 11:52:00
8:29 AM,46.4,41.0,81,30.21,10.0,South,9.2,-,N/A,,Overcast,180,2013-03-11 12:29:00
8:52 AM,46.0,41.0,83,30.22,10.0,South,10.4,-,N/A,,Overcast,190,2013-03-11 12:52:00
9:37 AM,46.4,41.0,81,30.21,10.0,South,8.1,-,N/A,,Overcast,180,2013-03-11 13:37:00
9:52 AM,46.9,42.1,83,30.20,10.0,South,6.9,-,N/A,,Overcast,180,2013-03-11 13:52:00
10:52 AM,50.0,42.1,74,30.18,10.0,SSW,8.1,-,N/A,,Overcast,200,2013-03-11 14:52:00
11:39 AM,51.8,42.8,71,30.18,10.0,South,6.9,-,N/A,,Overcast,190,2013-03-11 15:39:00
11:52 AM,52.0,43.0,71,30.17,10.0,South,9.2,-,N/A,,Overcast,170,2013-03-11 15:52:00
12:06 PM,53.6,44.6,72,30.16,10.0,South,8.1,-,N/A,,Overcast,170,2013-03-11 16:06:00
12:42 PM,53.6,44.6,72,30.15,10.0,South,9.2,-,N/A,,Overcast,180,2013-03-11 16:42:00
12:52 PM,55.0,44.1,67,30.15,10.0,South,9.2,-,N/A,,Overcast,190,2013-03-11 16:52:00
1:52 PM,55.9,45.0,67,30.12,10.0,South,9.2,-,N/A,,Overcast,180,2013-03-11 17:52:00
2:52 PM,59.0,45.0,60,30.09,10.0,SSW,11.5,-,N/A,,Overcast,200,2013-03-11 18:52:00
3:52 PM,59.0,46.9,64,30.07,10.0,South,10.4,-,N/A,,Overcast,190,2013-03-11 19:52:00
4:52 PM,60.1,46.9,62,30.04,10.0,South,10.4,-,N/A,,Overcast,170,2013-03-11 20:52:00
5:52 PM,60.1,46.0,60,30.01,10.0,SE,13.8,-,N/A,,Overcast,130,2013-03-11 21:52:00
6:52 PM,59.0,46.9,64,30.02,10.0,SSE,9.2,16.1,N/A,,Overcast,150,2013-03-11 22:52:00
7:52 PM,57.9,46.0,65,29.98,10.0,SE,12.7,-,N/A,,Overcast,140,2013-03-11 23:52:00
8:52 PM,57.0,46.0,67,29.99,10.0,SSE,9.2,-,N/A,,Overcast,160,2013-03-12 00:52:00
9:52 PM,57.0,46.0,67,30.00,10.0,South,10.4,-,N/A,,Overcast,170,2013-03-12 01:52:00
10:52 PM,57.0,46.0,67,29.99,10.0,SSE,13.8,-,N/A,,Overcast,160,2013-03-12 02:52:00
11:52 PM,57.9,46.0,65,29.96,10.0,South,18.4,-,0.00,,Overcast,170,2013-03-12 03:52:00